Time,TemperatureF,DewpointF,PressureIn,WindDirection,WindDirectionDegrees,WindSpeedMPH,WindSpeedGustMPH,Humidity,HourlyPrecipIn,Conditions,Clouds,dailyrainin,SolarRadiationWatts/m^2,SoftwareType,DateUTC
2013-11-14 00:01:00,45.0,41.0,-100.00,WNW,292,1.0,3.0,87,-99.99,,,0.00,0.000000,,2013-11-14 08:01:00,
2013-11-14 00:12:00,45.0,41.0,-100.00,WNW,292,1.0,3.0,87,-99.99,,,0.00,0.000000,,2013-11-14 08:12:00,
2013-11-14 00:42:00,45.0,42.0,-100.00,North,359,2.0,5.0,89,-99.99,,,0.00,0.000000,,2013-11-14 08:42:00,
2013-11-14 00:53:00,45.0,42.0,-100.00,North,359,2.0,5.0,89,-99.99,,,0.00,0.000000,,2013-11-14 08:53:00,
2013-11-14 01:02:00,45.0,42.0,-100.00,North,359,2.0,5.0,89,-99.99,,,0.00,0.000000,,2013-11-14 09:02:00,
2013-11-14 01:11:00,45.0,42.0,-100.00,North,359,2.0,5.0,89,-99.99,,,0.00,0.000000,,2013-11-14 09:11:00,
2013-11-14 01:43:00,44.0,41.0,-100.00,North,355,1.0,2.0,87,-99.99,,,0.00,0.000000,,2013-11-14 09:43:00,
2013-11-14 01:53:00,44.0,41.0,-100.00,North,355,1.0,2.0,87,-99.99,,,0.00,0.000000,,2013-11-14 09:53:00,
2013-11-14 02:03:00,44.0,41.0,-100.00,North,355,1.0,2.0,87,-99.99,,,0.00,0.000000,,2013-11-14 10:03:00,
2013-11-14 02:12:00,44.0,41.0,-100.00,North,355,1.0,2.0,87,-99.99,,,0.00,0.000000,,2013-11-14 10:12:00,
2013-11-14 02:52:00,44.0,40.0,-100.00,WNW,284,2.0,4.0,86,-99.99,,,0.00,0.000000,,2013-11-14 10:52:00,
2013-11-14 03:02:00,44.0,40.0,-100.00,WNW,284,2.0,4.0,86,-99.99,,,0.00,0.000000,,2013-11-14 11:02:00,
2013-11-14 03:11:00,44.0,40.0,-100.00,WNW,284,2.0,4.0,86,-99.99,,,0.00,0.000000,,2013-11-14 11:11:00,
2013-11-14 03:42:00,43.0,39.0,-100.00,West,277,5.0,8.0,87,-99.99,,,0.00,0.000000,,2013-11-14 11:42:00,
2013-11-14 03:52:00,43.0,39.0,-100.00,West,277,5.0,8.0,87,-99.99,,,0.00,0.000000,,2013-11-14 11:52:00,
2013-11-14 04:02:00,43.0,39.0,-100.00,West,277,5.0,8.0,87,-99.99,,,0.00,0.000000,,2013-11-14 12:02:00,
2013-11-14 04:12:00,43.0,39.0,-100.00,West,277,5.0,8.0,87,-99.99,,,0.00,0.000000,,2013-11-14 12:12:00,
2013-11-14 04:42:00,43.0,40.0,-100.00,NW,316,2.0,5.0,86,-99.99,,,0.00,0.000000,,2013-11-14 12:42:00,
2013-11-14 04:52:00,43.0,40.0,-100.00,NW,316,2.0,5.0,86,-99.99,,,0.00,0.000000,,2013-11-14 12:52:00,
2013-11-14 05:01:00,43.0,40.0,-100.00,NW,316,2.0,5.0,86,-99.99,,,0.00,0.000000,,2013-11-14 13:01:00,
2013-11-14 05:11:00,43.0,40.0,-100.00,NW,316,2.0,5.0,86,-99.99,,,0.00,0.000000,,2013-11-14 13:11:00,
2013-11-14 06:22:00,43.0,40.0,-100.00,WNW,285,3.0,5.0,89,-99.99,,,-99.99,0.000000,,2013-11-14 14:22:00,
2013-11-14 06:32:00,43.0,40.0,-100.00,WNW,285,3.0,5.0,89,-99.99,,,-99.99,0.000000,,2013-11-14 14:32:00,
2013-11-14 06:52:00,44.0,40.0,-100.00,NW,326,1.0,4.0,86,-99.99,,,-99.99,0.000000,,2013-11-14 14:52:00,
2013-11-14 07:02:00,44.0,40.0,-100.00,NW,326,1.0,4.0,86,-99.99,,,-99.99,0.000000,,2013-11-14 15:02:00,
2013-11-14 07:11:00,44.0,40.0,-100.00,NW,326,1.0,4.0,86,-99.99,,,-99.99,0.000000,,2013-11-14 15:11:00,
2013-11-14 07:43:00,43.0,39.0,-100.00,North,354,6.0,9.0,86,-99.99,,,0.00,0.000000,,2013-11-14 15:43:00,
2013-11-14 07:53:00,43.0,39.0,-100.00,North,354,6.0,9.0,86,-99.99,,,0.00,0.000000,,2013-11-14 15:53:00,
2013-11-14 08:03:00,43.0,39.0,-100.00,North,354,6.0,9.0,86,-99.99,,,0.00,0.000000,,2013-11-14 16:03:00,
2013-11-14 08:13:00,43.0,39.0,-100.00,North,354,6.0,9.0,86,-99.99,,,0.00,0.000000,,2013-11-14 16:13:00,
2013-11-14 08:42:00,43.0,40.0,-100.00,South,181,4.0,11.0,87,-99.99,,,0.00,1.280000,,2013-11-14 16:42:00,
2013-11-14 08:52:00,43.0,40.0,-100.00,South,181,4.0,11.0,87,-99.99,,,0.00,1.280000,,2013-11-14 16:52:00,
2013-11-14 09:02:00,43.0,40.0,-100.00,South,181,4.0,11.0,87,-99.99,,,0.00,1.280000,,2013-11-14 17:02:00,
2013-11-14 09:12:00,43.0,40.0,-100.00,South,181,4.0,11.0,87,-99.99,,,0.00,1.280000,,2013-11-14 17:12:00,
2013-11-14 09:52:00,44.0,40.0,-100.00,NNW,340,2.0,7.0,85,-99.99,,,0.00,15.570000,,2013-11-14 17:52:00,
2013-11-14 10:02:00,44.0,40.0,-100.00,NNW,340,2.0,7.0,85,-99.99,,,0.00,15.570000,,2013-11-14 18:02:00,
2013-11-14 10:12:00,44.0,40.0,-100.00,NNW,340,2.0,7.0,85,-99.99,,,0.00,15.570000,,2013-11-14 18:12:00,
2013-11-14 10:42:00,44.0,40.0,-100.00,NW,317,4.0,7.0,84,-99.99,,,0.00,60.669998,,2013-11-14 18:42:00,
2013-11-14 10:52:00,44.0,40.0,-100.00,NW,317,4.0,7.0,84,-99.99,,,0.00,60.669998,,2013-11-14 18:52:00,
2013-11-14 11:01:00,44.0,40.0,-100.00,NW,317,4.0,7.0,84,-99.99,,,0.00,60.669998,,2013-11-14 19:01:00,
2013-11-14 11:11:00,44.0,40.0,-100.00,NW,317,4.0,7.0,84,-99.99,,,0.00,60.669998,,2013-11-14 19:11:00,
2013-11-14 11:42:00,45.0,40.0,-100.00,North,354,2.0,6.0,81,-99.99,,,0.00,102.849998,,2013-11-14 19:42:00,
2013-11-14 11:52:00,45.0,40.0,-100.00,North,354,2.0,6.0,81,-99.99,,,0.00,102.849998,,2013-11-14 19:52:00,
2013-11-14 12:02:00,45.0,40.0,-100.00,North,354,2.0,6.0,81,-99.99,,,0.00,102.849998,,2013-11-14 20:02:00,
2013-11-14 12:12:00,45.0,40.0,-100.00,North,354,2.0,6.0,81,-99.99,,,0.00,102.849998,,2013-11-14 20:12:00,
2013-11-14 12:52:00,45.0,40.0,-100.00,West,270,4.0,8.0,82,-99.99,,,0.00,117.730003,,2013-11-14 20:52:00,
2013-11-14 13:02:00,45.0,40.0,-100.00,West,270,4.0,8.0,82,-99.99,,,0.00,117.730003,,2013-11-14 21:02:00,
2013-11-14 13:11:00,45.0,40.0,-100.00,West,270,4.0,8.0,82,-99.99,,,0.00,117.730003,,2013-11-14 21:11:00,
2013-11-14 14:23:00,47.0,39.0,-100.00,West,275,3.0,6.0,72,-99.99,,,-99.99,246.500000,,2013-11-14 22:23:00,
2013-11-14 14:43:00,47.0,39.0,-100.00,West,278,2.0,4.0,72,-99.99,,,0.00,176.889999,,2013-11-14 22:43:00,
2013-11-14 14:53:00,47.0,39.0,-100.00,West,278,2.0,4.0,72,-99.99,,,0.00,176.889999,,2013-11-14 22:53:00,
2013-11-14 15:02:00,47.0,39.0,-100.00,West,278,2.0,4.0,72,-99.99,,,0.00,176.889999,,2013-11-14 23:02:00,
2013-11-14 15:12:00,47.0,39.0,-100.00,West,278,2.0,4.0,72,-99.99,,,0.00,176.889999,,2013-11-14 23:12:00,
2013-11-14 15:43:00,49.0,39.0,-100.00,SW,232,3.0,5.0,67,-99.99,,,0.00,265.910004,,2013-11-14 23:43:00,
2013-11-14 15:52:00,49.0,39.0,-100.00,SW,232,3.0,5.0,67,-99.99,,,0.00,265.910004,,2013-11-14 23:52:00,
2013-11-14 16:01:00,49.0,39.0,-100.00,SW,232,3.0,5.0,67,-99.99,,,0.00,265.910004,,2013-11-15 00:01:00,
2013-11-14 16:11:00,49.0,39.0,-100.00,SW,232,3.0,5.0,67,-99.99,,,0.00,265.910004,,2013-11-15 00:11:00,
2013-11-14 16:42:00,50.0,39.0,-100.00,WSW,241,2.0,5.0,67,-99.99,,,0.00,139.699997,,2013-11-15 00:42:00,
2013-11-14 16:52:00,50.0,39.0,-100.00,WSW,241,2.0,5.0,67,-99.99,,,0.00,139.699997,,2013-11-15 00:52:00,
2013-11-14 17:01:00,50.0,39.0,-100.00,WSW,241,2.0,5.0,67,-99.99,,,0.00,139.699997,,2013-11-15 01:01:00,
2013-11-14 17:12:00,50.0,39.0,-100.00,WSW,241,2.0,5.0,67,-99.99,,,0.00,139.699997,,2013-11-15 01:12:00,
2013-11-14 18:12:00,46.0,41.0,-100.00,SE,139,1.0,5.0,79,-99.99,,,-99.99,0.810000,,2013-11-15 02:12:00,
2013-11-14 18:22:00,46.0,41.0,-100.00,SE,139,1.0,5.0,79,-99.99,,,-99.99,0.810000,,2013-11-15 02:22:00,
2013-11-14 18:32:00,46.0,41.0,-100.00,SE,139,1.0,5.0,79,-99.99,,,-99.99,0.810000,,2013-11-15 02:32:00,
2013-11-14 18:52:00,45.0,38.0,-100.00,NW,318,2.0,7.0,76,-99.99,,,0.00,0.000000,,2013-11-15 02:52:00,
2013-11-14 19:02:00,45.0,38.0,-100.00,NW,318,2.0,7.0,76,-99.99,,,0.00,0.000000,,2013-11-15 03:02:00,
2013-11-14 19:12:00,45.0,38.0,-100.00,NW,318,2.0,7.0,76,-99.99,,,0.00,0.000000,,2013-11-15 03:12:00,
2013-11-14 19:44:00,44.0,37.0,-100.00,South,180,5.0,10.0,75,-99.99,,,0.00,0.000000,,2013-11-15 03:44:00,
2013-11-14 19:54:00,44.0,37.0,-100.00,South,180,5.0,10.0,75,-99.99,,,0.00,0.000000,,2013-11-15 03:54:00,
2013-11-14 20:04:00,44.0,37.0,-100.00,South,180,5.0,10.0,75,-99.99,,,0.00,0.000000,,2013-11-15 04:04:00,
2013-11-14 20:14:00,44.0,37.0,-100.00,South,180,5.0,10.0,75,-99.99,,,0.00,0.000000,,2013-11-15 04:14:00,
2013-11-14 20:43:00,44.0,38.0,-100.00,South,175,5.0,10.0,78,-99.99,,,0.00,0.000000,,2013-11-15 04:43:00,
2013-11-14 20:53:00,44.0,38.0,-100.00,South,175,5.0,10.0,78,-99.99,,,0.00,0.000000,,2013-11-15 04:53:00,
2013-11-14 21:03:00,44.0,38.0,-100.00,South,175,5.0,10.0,78,-99.99,,,0.00,0.000000,,2013-11-15 05:03:00,
2013-11-14 21:13:00,44.0,38.0,-100.00,South,175,5.0,10.0,78,-99.99,,,0.00,0.000000,,2013-11-15 05:13:00,
2013-11-14 21:44:00,42.0,39.0,-100.00,South,185,2.0,9.0,88,-99.99,,,0.00,0.000000,,2013-11-15 05:44:00,
2013-11-14 21:53:00,42.0,39.0,-100.00,South,185,2.0,9.0,88,-99.99,,,0.00,0.000000,,2013-11-15 05:53:00,
2013-11-14 22:02:00,42.0,39.0,-100.00,South,185,2.0,9.0,88,-99.99,,,0.00,0.000000,,2013-11-15 06:02:00,
2013-11-14 22:12:00,42.0,39.0,-100.00,South,185,2.0,9.0,88,-99.99,,,0.00,0.000000,,2013-11-15 06:12:00,
2013-11-14 22:43:00,43.0,39.0,-100.00,SSW,194,3.0,9.0,86,-99.99,,,0.00,0.000000,,2013-11-15 06:43:00,
2013-11-14 22:53:00,43.0,39.0,-100.00,SSW,194,3.0,9.0,86,-99.99,,,0.00,0.000000,,2013-11-15 06:53:00,
2013-11-14 23:01:00,43.0,39.0,-100.00,SSW,194,3.0,9.0,86,-99.99,,,0.00,0.000000,,2013-11-15 07:01:00,
2013-11-14 23:12:00,43.0,39.0,-100.00,SSW,194,3.0,9.0,86,-99.99,,,0.00,0.000000,,2013-11-15 07:12:00,
2013-11-14 23:42:00,42.0,38.0,-100.00,South,190,6.0,12.0,84,-99.99,,,0.00,0.000000,,2013-11-15 07:42:00,
2013-11-14 23:52:00,42.0,38.0,-100.00,South,190,6.0,12.0,84,-99.99,,,0.00,0.000000,,2013-11-15 07:52:00,